Weather observations for the past three days for
Omak Airport
Metric (Imperial)
Date Time (pdt) Wind (kph) Vis. (km) Weather Sky Cond. Temperature (ºC) Relative Humidity Wind Chill (°C) Heat Index (°C) Pressure Precipitation (cm)
Air Dwpt 6 hour altimeter (cm) sea level (mb) 1 hr 3 hr 6 hr
Max. Min.
24 14:53 Calm 16.09 Fair CLR 26.1 1.7 20% 26 76.02 1013.1
24 13:53 S 13 16.09 Fair CLR 25 1.7 22% 25 76.1 1013.9
24 12:53 Vrbl 7 16.09 Fair CLR 23.9 1.1 22% 25 76.15 1014.6
24 11:53 Calm 16.09 Fair CLR 22.8 1.7 25% 76.15 1014.8
24 10:53 N 15 16.09 Fair CLR 22.8 3.3 22.8 8.9 28% 76.17 1015.2
24 09:53 N 19 16.09 Fair CLR 20.6 3.3 32% 76.2 1015.5
24 08:53 N 22 16.09 Fair CLR 18.9 3.3 36% 76.25 1015.9
24 07:53 N 11 16.09 Fair CLR 17.2 3.9 41% 76.23 1015.9
24 06:53 NW 11 16.09 Fair CLR 13.9 3.9 51% 76.23 1015.6
24 05:53 NW 11 16.09 Fair CLR 10 3.3 63% 9 76.2 1015.4
24 04:53 NW 11 16.09 Fair CLR 8.9 2.2 17.8 8.9 63% 7 76.15 1014.9
24 03:53 NW 17 16.09 Fair CLR 10.6 2.2 56% 76.12 1014.3
24 02:53 NW 13 16.09 Fair CLR 12.8 2.2 49% 76.07 1013.7
24 01:53 N 15 16.09 Fair CLR 13.9 2.2 45% 76.07 1013.5
24 00:53 N 17 16.09 Fair CLR 15.6 2.2 41% 76.02 1012.7
23 23:53 N 17 16.09 Fair CLR 16.1 2.8 41% 76 1012.4
23 22:53 N 15 16.09 Fair CLR 16.1 4.4 27.8 16.1 46% 75.95 1011.8
23 21:53 NW 30 G 41 16.09 Fair CLR 18.9 1.1 30% 75.87 1010.9
23 20:53 NW 20 16.09 Fair CLR 20 2.2 31% 75.79 1009.7
23 19:53 NW 28 16.09 Fair CLR 22.8 1.1 24% 75.72 1008.8
23 18:53 W 19 16.09 Fair CLR 25 1.7 22% 25 75.67 1008.0
23 17:53 SW 19 16.09 Fair CLR 26.7 0.6 18% 26 75.62 1007.5
23 16:53 SW 17 G 33 16.09 Fair CLR 27.2 2.2 28.9 26.1 20% 26 75.62 1007.5
23 15:53 SW 22 G 39 16.09 Fair CLR 28.3 2.8 19% 27 75.62 1007.2
23 14:53 S 15 G 33 16.09 Fair CLR 28.3 2.8 19% 27 75.62 1007.4
23 13:53 S 13 G 28 16.09 Fair CLR 27.8 2.2 19% 27 75.62 1007.5
23 12:53 S 15 G 35 16.09 Fair CLR 27.2 1.1 18% 26 75.64 1007.7
23 11:53 S 15 16.09 Fair CLR 26.7 0 17% 26 75.64 1007.8
23 10:53 S 20 G 35 16.09 Fair CLR 26.7 -0.6 26.7 11.1 17% 26 75.67 1007.9
23 09:53 S 17 16.09 Fair CLR 25 3.9 26% 25 75.67 1007.7
23 08:53 SE 13 16.09 Fair CLR 23.3 7.2 36% 75.64 1007.5
23 07:53 SE 11 16.09 Fair CLR 21.1 8.3 44% 75.64 1007.4
23 06:53 SE 7 16.09 Fair CLR 18.9 7.2 47% 75.62 1007.2
23 05:53 Vrbl 6 16.09 Fair CLR 15 6.1 56% 75.59 1007.1
23 04:53 Calm 16.09 Fair CLR 15 6.1 23.9 13.9 56% 75.54 1006.3
23 03:53 NW 9 16.09 Fair CLR 16.7 5 46% 75.51 1005.7
23 02:53 W 7 16.09 Fair CLR 16.7 7.2 54% 75.49 1005.5
23 01:53 Calm 16.09 Fair CLR 17.2 8.3 56% 75.46 1005.2
23 00:53 W 7 16.09 Partly Cloudy SCT120 20 8.3 47% 75.46 1005.3
22 23:53 Calm 16.09 Fair CLR 20 7.2 44% 75.46 1005.3
22 22:53 NW 15 16.09 Fair CLR 21.7 6.7 32.2 21.1 38% 75.49 1005.4
22 21:53 NW 15 16.09 Partly Cloudy SCT120 24.4 7.2 33% 25 75.46 1005.3
22 20:53 S 13 16.09 Mostly Cloudy BKN110 27.2 7.2 28% 26 75.46 1005.1
22 19:53 S 11 16.09 Fair CLR 30.6 5.6 21% 29 75.46 1005.1
22 18:53 SW 11 16.09 Fair CLR 32.2 4.4 17% 30 75.49 1005.4
22 17:53 SW 11 16.09 Fair CLR 30.6 4.4 19% 29 75.51 1006.0
22 16:53 SW 15 16.09 Mostly Cloudy BKN120 31.1 5 32.2 26.1 19% 29 75.57 1006.8
22 15:53 S 15 16.09 Fair CLR 31.7 5.6 19% 30 75.64 1007.5
22 14:53 SW 11 16.09 A Few Clouds FEW110 29.4 5.6 22% 28 75.67 1007.9
22 13:53 SW 15 16.09 Fair CLR 31.1 5.6 20% 29 75.69 1008.5
22 12:53 SW 9 16.09 Fair CLR 27.8 7.2 27% 27 75.77 1009.3
22 11:53 Calm 16.09 Fair CLR 26.7 5.6 26% 26 75.79 1009.6
22 10:53 E 7 16.09 Fair CLR 26.1 6.1 26.1 12.8 28% 26 75.82 1009.9
22 09:53 E 7 16.09 Fair CLR 23.3 7.8 37% 75.87 1010.7
22 08:53 Calm 16.09 Fair CLR 22.2 6.7 37% 75.87 1010.8
22 07:53 NE 6 16.09 Fair CLR 20 6.7 42% 75.9 1010.9
22 06:53 N 7 16.09 Fair CLR 16.7 7.8 56% 75.9 1010.8
22 05:53 NW 9 16.09 Fair CLR 14.4 6.1 58% 75.87 1010.8
22 04:53 NW 6 16.09 Fair CLR 12.8 5.6 23.9 12.2 62% 75.87 1010.6
22 03:53 NW 6 16.09 Fair CLR 14.4 5 53% 75.84 1010.3
22 02:53 NW 9 16.09 Fair CLR 13.9 5.6 58% 75.84 1010.3
22 01:53 NW 9 16.09 Fair CLR 13.3 6.1 62% 75.84 1010.3
22 00:53 W 9 16.09 Fair CLR 16.7 5 46% 75.82 1010.1
21 23:53 NW 9 16.09 Fair CLR 18.9 5 40% 75.82 1009.9
21 22:53 W 11 16.09 Fair CLR 23.3 3.9 32.8 21.1 28% 75.79 1009.6
21 21:53 NW 15 16.09 Fair CLR 22.2 7.2 38% 75.77 1009.3
21 20:53 W 6 16.09 Fair CLR 23.3 10 43% 75.72 1008.9
21 19:53 S 6 16.09 Fair CLR 30 8.9 27% 29 75.74 1008.7
21 18:53 S 7 16.09 A Few Clouds FEW120 31.7 5 19% 30 75.74 1008.7
21 17:53 SE 9 16.09 Fair CLR 32.2 3.9 17% 30 75.74 1009.1
21 16:53 SE 11 16.09 Fair CLR 32.2 2.8 32.8 26.7 15% 30 75.79 1009.7
21 15:53 Vrbl 9 G 28 16.09 Fair CLR 31.7 2.8 16% 30 75.84 1010.4
Date Time (pdt) Wind (kph) Vis. (km) Weather Sky Cond. Air Dwpt Max. Min. Relative Humidity Wind Chill (°C) Heat Index (°C) altimeter (cm) sea level (mb) 1 hr 3 hr 6 hr
6 hour
Temperature (ºC) Pressure Precipitation (cm)